Weather History for Mammoth, CA

Change the Weather History Date:

Monday, December 9, 2013

  Actual Average Record
Temperature  
Mean Temperature 18 °F -  
Max Temperature 37 °F 40 °F 55 °F (2014)
Min Temperature 0 °F 24 °F 0 °F (2013)
Degree Days  
Heating Degree Days 46    
Moisture  
Dew Point -3 °F    
Average Humidity 49    
Maximum Humidity 72    
Minimum Humidity 14    
Precipitation  
Precipitation 0.00 in - - ()
Sea Level Pressure  
Sea Level Pressure 30.30 in    
Wind  
Wind Speed 4 mph (NNW)    
Max Wind Speed 8 mph    
Max Gust Speed -    
Visibility 10 miles    
Events      
Averages and records for this station are not official NWS values.
T = Trace of Precipitation, MM = Missing Value Source: NWS Daily Summary

Daily Weather History Graph

Daily Weather History Graph

Search for Another Location

Airport:

Trip Planner

Search our weather history database for the weather conditions in past years. The results will help you decide how hot, cold, wet, or windy it might be!

Date:

Astronomy

Dec. 09, 2013 Rise Set
Actual Time 6:58 AM PST 4:36 PM PST
Civil Twilight 6:29 AM PST 5:06 PM PST
Nautical Twilight 5:57 AM PST 5:38 PM PST
Astronomical Twilight 5:25 AM PST 6:10 PM PST
Moon 12:01 PM PST (12/9) No Moon Set
Length of Visible Light 10h 36m
Length of Day
9h 37m
First Quarter, 52% of the Moon is Illuminated
Dec 9
First Quarter
Dec 17
Full
Dec 25
Last Quarter
Jan 1
New
Jan 7
First Quarter

Hourly Weather History & Observations

Time (PST) Temp. Windchill Dew Point Humidity Pressure Visibility Wind Dir Wind Speed Gust Speed Precip Events Conditions
12:15 AM -0.4 °F -10.4 °F -7.6 °F 72% 30.16 in 10.0 mi North 4.6 mph - N/A   Clear
12:35 AM 1.4 °F -11.3 °F -7.6 °F 66% 30.17 in 10.0 mi North 6.9 mph - N/A   Clear
12:55 AM 1.4 °F -6.2 °F -5.8 °F 72% 30.17 in 10.0 mi North 3.5 mph - N/A   Clear
1:15 AM -0.4 °F -10.4 °F -9.4 °F 66% 30.17 in 10.0 mi North 4.6 mph - N/A   Clear
1:35 AM -0.4 °F -10.4 °F -9.4 °F 66% 30.18 in 10.0 mi North 4.6 mph - N/A   Clear
1:55 AM 1.4 °F -9.9 °F -7.6 °F 66% 30.19 in 10.0 mi North 5.8 mph - N/A   Clear
2:15 AM 3.2 °F -7.8 °F -5.8 °F 66% 30.19 in 10.0 mi North 5.8 mph - N/A   Clear
2:35 AM 5.0 °F -4.1 °F -5.8 °F 61% 30.21 in 10.0 mi NNW 4.6 mph - N/A   Clear
2:55 AM 1.4 °F -8.3 °F -7.6 °F 66% 30.21 in 10.0 mi NNW 4.6 mph - N/A   Clear
3:15 AM 1.4 °F - -7.6 °F 66% 30.21 in 10.0 mi Calm Calm - N/A   Clear
3:35 AM 3.2 °F -7.8 °F -7.6 °F 61% 30.21 in 10.0 mi North 5.8 mph - N/A   Clear
3:55 AM 1.4 °F -6.2 °F -7.6 °F 66% 30.21 in 10.0 mi NNW 3.5 mph - N/A   Clear
4:35 AM 3.2 °F -4.2 °F -5.8 °F 66% 30.22 in 10.0 mi NNW 3.5 mph - N/A   Clear
4:55 AM 5.0 °F -2.1 °F -7.6 °F 56% 30.22 in 10.0 mi North 3.5 mph - N/A   Clear
5:15 AM 3.2 °F -7.8 °F -5.8 °F 66% 30.23 in 10.0 mi NNW 5.8 mph - N/A   Clear
5:35 AM 1.4 °F -8.3 °F -5.8 °F 72% 30.24 in 10.0 mi North 4.6 mph - N/A   Clear
5:55 AM 1.4 °F -9.9 °F -5.8 °F 72% 30.25 in 10.0 mi North 5.8 mph - N/A   Clear
6:15 AM 1.4 °F -6.2 °F -5.8 °F 72% 30.26 in 10.0 mi North 3.5 mph - N/A   Clear
6:35 AM 5.0 °F -5.6 °F -5.8 °F 61% 30.26 in 10.0 mi North 5.8 mph - N/A   Clear
6:55 AM 6.8 °F -2.0 °F -4.0 °F 61% 30.27 in 10.0 mi WNW 4.6 mph - N/A   Clear
7:15 AM 5.0 °F -2.1 °F -4.0 °F 66% 30.27 in 10.0 mi NNW 3.5 mph - N/A   Clear
7:35 AM 5.0 °F -6.9 °F -4.0 °F 66% 30.28 in 10.0 mi NNW 6.9 mph - N/A   Clear
7:55 AM 10.4 °F 2.2 °F -2.2 °F 57% 30.29 in 10.0 mi North 4.6 mph - N/A   Clear
8:15 AM 12.2 °F 2.9 °F -2.2 °F 53% 30.30 in 10.0 mi North 5.8 mph - N/A   Clear
8:35 AM 10.4 °F 0.8 °F -2.2 °F 57% 30.31 in 10.0 mi SSE 5.8 mph - N/A   Clear
8:55 AM 15.8 °F - -0.4 °F 49% 30.32 in 10.0 mi Calm Calm - N/A   Clear
9:15 AM 23.0 °F 17.0 °F -0.4 °F 36% 30.32 in 10.0 mi West 4.6 mph - N/A   Clear
9:35 AM 24.8 °F 19.1 °F -0.4 °F 34% 30.33 in 10.0 mi West 4.6 mph - N/A   Clear
9:55 AM 26.6 °F 19.1 °F -0.4 °F 31% 30.34 in 10.0 mi West 6.9 mph - N/A   Clear
10:15 AM 30.2 °F 22.6 °F -4.0 °F 23% 30.34 in 10.0 mi WNW 8.1 mph - N/A   Clear
10:35 AM 28.4 °F 24.6 °F 1.4 °F 31% 30.34 in 10.0 mi SSE 3.5 mph - N/A   Clear
10:55 AM 32.0 °F 24.8 °F -9.4 °F 17% 30.33 in 10.0 mi West 8.1 mph - N/A   Clear
11:15 AM 33.8 °F 30.8 °F -11.2 °F 14% 30.32 in 10.0 mi West 3.5 mph - N/A   Clear
11:35 AM 33.8 °F 29.6 °F -7.6 °F 17% 30.31 in 10.0 mi SE 4.6 mph - N/A   Clear
11:55 AM 32.0 °F 25.6 °F 5.0 °F 32% 30.30 in 10.0 mi SE 6.9 mph - N/A   Clear
12:15 PM 33.8 °F 29.6 °F 5.0 °F 30% 30.30 in 10.0 mi SE 4.6 mph - N/A   Clear
12:35 PM 33.8 °F 27.7 °F 5.0 °F 30% 30.30 in 10.0 mi SE 6.9 mph - N/A   Clear
12:55 PM 35.6 °F 30.7 °F 3.2 °F 26% 30.30 in 10.0 mi SE 5.8 mph - N/A   Clear
1:15 PM 35.6 °F 31.7 °F 1.4 °F 24% 30.30 in 10.0 mi ESE 4.6 mph - N/A   Clear
1:35 PM 35.6 °F - -2.2 °F 20% 30.30 in 10.0 mi Calm Calm - N/A   Clear
1:55 PM 37.4 °F 32.8 °F -0.4 °F 20% 30.30 in 7.0 mi ESE 5.8 mph - N/A   Clear
2:15 PM 37.4 °F 32.8 °F -0.4 °F 20% 30.30 in 10.0 mi SE 5.8 mph - N/A   Clear
2:35 PM 37.4 °F 34.9 °F -2.2 °F 19% 30.31 in 10.0 mi SE 3.5 mph - N/A   Clear
2:55 PM 37.4 °F - -2.2 °F 19% 30.31 in 10.0 mi Calm Calm - N/A   Clear
3:15 PM 37.4 °F - -4.0 °F 17% 30.31 in 10.0 mi Calm Calm - N/A   Clear
3:35 PM 33.8 °F 28.6 °F -0.4 °F 23% 30.31 in 10.0 mi WSW 5.8 mph - N/A   Clear
3:55 PM 28.4 °F 24.6 °F 1.4 °F 31% 30.31 in 7.0 mi WSW 3.5 mph - N/A   Clear
4:15 PM 28.4 °F - -0.4 °F 29% 30.31 in 7.0 mi Calm Calm - N/A   Clear
4:35 PM 26.6 °F - -0.4 °F 31% 30.32 in 7.0 mi Calm Calm - N/A   Clear
4:55 PM 26.6 °F 18.2 °F -0.4 °F 31% 30.32 in 7.0 mi ESE 8.1 mph - N/A   Clear
5:15 PM 23.0 °F 15.8 °F -0.4 °F 36% 30.32 in 10.0 mi SE 5.8 mph - N/A   Clear
5:35 PM 23.0 °F 15.8 °F -0.4 °F 36% 30.32 in 10.0 mi SSE 5.8 mph - N/A   Clear
5:55 PM 19.4 °F - 1.4 °F 46% 30.33 in 10.0 mi Calm Calm - N/A   Clear
6:15 PM 17.6 °F - -0.4 °F 45% 30.34 in 10.0 mi Calm Calm - N/A   Clear
6:35 PM 14.0 °F - -0.4 °F 53% 30.34 in 10.0 mi Calm Calm - N/A   Clear
6:55 PM 15.8 °F 10.2 °F -0.4 °F 49% 30.35 in 10.0 mi North 3.5 mph - N/A   Clear
7:15 PM 12.2 °F 6.1 °F -2.2 °F 53% 30.35 in 10.0 mi NNW 3.5 mph - N/A   Clear
7:35 PM 14.0 °F - -0.4 °F 53% 30.36 in 10.0 mi Calm Calm - N/A   Clear
7:55 PM 14.0 °F 6.5 °F -0.4 °F 53% 30.36 in 10.0 mi North 4.6 mph - N/A   Clear
8:15 PM 10.4 °F - -2.2 °F 57% 30.36 in 10.0 mi Calm Calm - N/A   Clear
8:35 PM 14.0 °F 8.2 °F -0.4 °F 53% 30.37 in 10.0 mi NNW 3.5 mph - N/A   Clear
8:55 PM 12.2 °F - -0.4 °F 57% 30.37 in 10.0 mi Calm Calm - N/A   Clear
9:15 PM 8.6 °F 2.0 °F -2.2 °F 62% 30.37 in 10.0 mi North 3.5 mph - N/A   Clear
9:35 PM 10.4 °F 4.0 °F -0.4 °F 62% 30.38 in 10.0 mi NNW 3.5 mph - N/A   Clear
9:55 PM 10.4 °F - -0.4 °F 62% 30.38 in 10.0 mi Calm Calm - N/A   Clear
10:15 PM 5.0 °F -2.1 °F -4.0 °F 66% 30.38 in 10.0 mi NNW 3.5 mph - N/A   Clear
10:35 PM 8.6 °F - -2.2 °F 62% 30.38 in 10.0 mi Calm Calm - N/A   Clear
10:55 PM 6.8 °F - -2.2 °F 67% 30.38 in 10.0 mi Calm Calm - N/A   Clear
11:15 PM 5.0 °F -2.1 °F -2.2 °F 72% 30.38 in 10.0 mi North 3.5 mph - N/A   Clear
11:35 PM 5.0 °F - -2.2 °F 72% 30.37 in 10.0 mi Calm Calm - N/A   Clear
11:55 PM 5.0 °F - -2.2 °F 72% 30.37 in 10.0 mi Calm Calm - N/A   Clear